Starlink 31613

operational
NORAD ID: 59431 Int'l Des: 2024-065 Owner: SPXS Country: US Constellation: starlink
LEOCIRCULAR

关于 Starlink 31613

正在加载描述...

实时位置

正在加载3D地球...

即将过境

高度历史

Altitude vs Time

uPlot chart will show altitude changes over time

两行轨道根数

1 59431U 24065L 25351.15244436 .00002479 00000-0 95851-4 0 9998
2 59431 53.1619 304.9788 0001481 83.7969 276.3201 15.30180884 96299
Epoch: Dec 17, 2025 • Age: 10 hours

当前状态

高度 492.3 km
速度 7.62 km/s
星下点 -46.99°S, 122.49°W
发射日期 Apr 7, 2024
运行时间 1.6 years
类型 internet

技术详情

分类 Payload
质量 730.00 kg
干质量 700.00 kg
总质量 730.00 kg
长度 0.30 m
直径 4.10 m
跨度 29.00 m
形状 Box + pan
制造商 SPXS
平台类型 Starlink V2M
阶段状态 In Orbit
所有者/国家 SPXS/US

大型星座

Loading constellations...